User: anonymous   Login
Location: Unspecified
(0.0000°N, 0.0000°E)
Time: 16:17:32
(UTC+00:00)
Language:

N. Korean satellite - Orbit

View from above orbital plane
View from above orbital plane
View from above satellite
View from above satellite

Ground track
Ground track

The orbit data is extracted from the following two-line orbital elements,

1 39026U 12072A   20292.95847680 +.00001459 +00000-0 +53478-4 0  9994
2 39026 097.2309 286.1734 0037470 161.9635 198.2944 15.28944078436115
Epoch (UTC): 18 October 2020 23:00:12
Eccentricity: 0.0037470
inclination: 97.2309°
perigee height: 453 km
apogee height: 504 km
right ascension of ascending node: 286.1734°
argument of perigee: 161.9635°
revolutions per day: 15.28944078
mean anomaly at epoch: 198.2944°
orbit number at epoch: 43611

The dashed part of the orbit path shows where the satellite is in the earth's shadow,  

DLR